Alma, MI

2:11 AM EST on December 07, 2019 (GMT -0500)
Gratiot Community

Weather History for KAMN - May, 2019

Change the Weather History Date:

Sunday, May 26, 2019

  Actual Average Record
Temperature  
Mean Temperature 66 °F -  
Max Temperature 74 °F 70 °F 87 °F (1977)
Min Temperature 57 °F 47 °F 33 °F (1949)
Growing Degree Days 16 (Base 50)    
Moisture  
Dew Point 53 °F    
Average Humidity 63    
Maximum Humidity 86    
Minimum Humidity 34    
Precipitation  
Precipitation 0.00 in - - ()
Sea Level Pressure  
Sea Level Pressure 30.02 in    
Wind  
Wind Speed 4 mph (NNE)    
Max Wind Speed 9 mph    
Max Gust Speed -    
Visibility 10 miles    
Events      
Averages and records for this station are not official NWS values.
T = Trace of Precipitation, MM = Missing Value Source: NWS Daily Summary

Daily Weather History Graph

Daily Weather History Graph

Search for Another Location

Airport or City:

Astronomy

May. 26, 2019 Rise Set
Actual Time 6:05 AM EDT 9:07 PM EDT
Civil Twilight 5:30 AM EDT 9:41 PM EDT
Nautical Twilight 4:47 AM EDT 10:24 PM EDT
Astronomical Twilight 3:55 AM EDT 11:17 PM EDT
Moon 2:35 AM EDT (5/26) 1:06 PM EDT (5/26)
Length of Visible Light 16h 10m
Length of Day
15h 01m
Waning Gibbous, 50% of the Moon is Illuminated
May 26
Waning Gibbous
May 26
Last Quarter
Jun 3
New
Jun 10
First Quarter
Jun 17
Full

Hourly Weather History & Observations

Time (EDT) Temp. Dew Point Humidity Pressure Visibility Wind Dir Wind Speed Gust Speed Precip Events Conditions
12:15 AM 68.9 °F 63.0 °F 81% 29.91 in 10.0 mi SW 5.8 mph - N/A   Clear
12:35 AM 68.9 °F 62.8 °F 81% 29.92 in 10.0 mi SW 6.9 mph - N/A   Clear
12:36 AM 68.9 °F 62.8 °F 81% 29.92 in 10.0 mi SW 5.8 mph - N/A   Clear
12:55 AM 68.4 °F 62.6 °F 82% 29.91 in 10.0 mi WSW 5.8 mph - N/A   Clear
12:56 AM 68.4 °F 62.6 °F 82% 29.91 in 10.0 mi SW 5.8 mph - N/A   Clear
1:15 AM 68.7 °F 62.4 °F 80% 29.92 in 10.0 mi WSW 8.1 mph - N/A   Clear
1:35 AM 68.9 °F 62.4 °F 80% 29.92 in 10.0 mi SW 4.6 mph - N/A   Clear
1:55 AM 68.4 °F 62.1 °F 80% 29.92 in 10.0 mi SW 5.8 mph - N/A   Clear
2:15 AM 68.2 °F 62.1 °F 81% 29.92 in 10.0 mi SW 5.8 mph - N/A   Scattered Clouds
2:55 AM 67.6 °F 61.9 °F 82% 29.94 in 10.0 mi West 6.9 mph - N/A   Mostly Cloudy
3:15 AM 67.1 °F 61.7 °F 83% 29.94 in 10.0 mi West 5.8 mph - N/A   Mostly Cloudy
3:35 AM 65.3 °F 61.2 °F 86% 29.94 in 10.0 mi WNW 4.6 mph - N/A   Scattered Clouds
3:55 AM 65.5 °F 60.6 °F 84% 29.93 in 10.0 mi NW 5.8 mph - N/A   Clear
4:15 AM 65.3 °F 59.9 °F 83% 29.94 in 10.0 mi NNW 9.2 mph - N/A   Clear
4:16 AM 65.3 °F 59.9 °F 83% 29.94 in 10.0 mi NNW 9.2 mph - N/A   Clear
4:35 AM 64.0 °F 54.0 °F 70% 29.95 in 10.0 mi North 8.1 mph - N/A   Clear
4:36 AM 63.9 °F 53.8 °F 70% 29.95 in 10.0 mi North 8.1 mph - N/A   Clear
4:55 AM 62.1 °F 52.2 °F 70% 29.96 in 10.0 mi North 5.8 mph - N/A   Clear
4:56 AM 62.1 °F 52.2 °F 70% 29.96 in 10.0 mi North 4.6 mph - N/A   Clear
5:15 AM 61.0 °F 51.4 °F 71% 29.96 in 10.0 mi North 4.6 mph - N/A   Clear
5:16 AM 61.0 °F 51.3 °F 70% 29.96 in 10.0 mi North 3.5 mph - N/A   Clear
5:35 AM 60.1 °F 51.1 °F 72% 29.98 in 10.0 mi North 3.5 mph - N/A   Clear
5:55 AM 59.9 °F 51.1 °F 73% 29.99 in 10.0 mi North 3.5 mph - N/A   Scattered Clouds
6:15 AM 60.3 °F 51.1 °F 72% 29.99 in 10.0 mi North 5.8 mph - N/A   Mostly Cloudy
6:35 AM 59.5 °F 50.9 °F 73% 30.01 in 10.0 mi Calm Calm - N/A   Scattered Clouds
6:55 AM 59.4 °F 50.9 °F 74% 30.02 in 10.0 mi Calm Calm - N/A   Mostly Cloudy
6:56 AM 59.2 °F 50.9 °F 74% 30.02 in 10.0 mi Calm Calm - N/A   Mostly Cloudy
7:15 AM 59.9 °F 51.8 °F 75% 30.03 in 10.0 mi NNE 3.5 mph - N/A   Scattered Clouds
7:16 AM 59.9 °F 51.8 °F 75% 30.03 in 10.0 mi NNE 3.5 mph - N/A   Scattered Clouds
7:35 AM 60.6 °F 51.8 °F 73% 30.03 in 10.0 mi North 3.5 mph - N/A   Clear
7:36 AM 60.6 °F 51.8 °F 73% 30.03 in 10.0 mi NNE 3.5 mph - N/A   Clear
7:55 AM 61.7 °F 52.2 °F 71% 30.03 in 10.0 mi NNE 3.5 mph - N/A   Clear
7:56 AM 61.7 °F 52.3 °F 71% 30.03 in 10.0 mi NE 3.5 mph - N/A   Clear
8:15 AM 62.1 °F 53.1 °F 72% 30.03 in 10.0 mi NNE 5.8 mph - N/A   Mostly Cloudy
8:16 AM 62.1 °F 53.1 °F 72% 30.03 in 10.0 mi NNE 5.8 mph - N/A   Mostly Cloudy
8:35 AM 62.6 °F 53.6 °F 72% 30.04 in 10.0 mi NE 3.5 mph - N/A   Overcast
8:55 AM 62.8 °F 54.5 °F 74% 30.03 in 10.0 mi NE 4.6 mph - N/A   Mostly Cloudy
9:15 AM 64.2 °F 54.7 °F 71% 30.03 in 10.0 mi ENE 4.6 mph - N/A   Scattered Clouds
9:35 AM 64.0 °F 54.3 °F 71% 30.04 in 10.0 mi NE 4.6 mph - N/A   Clear
9:55 AM 64.4 °F 54.3 °F 70% 30.05 in 10.0 mi NNE 4.6 mph - N/A   Scattered Clouds
10:15 AM 65.5 °F 53.8 °F 66% 30.06 in 10.0 mi East 3.5 mph - N/A   Overcast
10:35 AM 65.8 °F 54.0 °F 65% 30.05 in 10.0 mi ENE 5.8 mph - N/A   Mostly Cloudy
10:55 AM 67.1 °F 53.8 °F 62% 30.06 in 10.0 mi SE 3.5 mph - N/A   Scattered Clouds
11:15 AM 68.0 °F 51.8 °F 56% 30.06 in 10.0 mi ENE 4.6 mph - N/A   Scattered Clouds
11:35 AM 68.9 °F 52.7 °F 56% 30.06 in 10.0 mi ENE 4.6 mph - N/A   Scattered Clouds
11:55 AM 68.9 °F 52.5 °F 56% 30.06 in 10.0 mi Calm Calm - N/A   Clear
12:15 PM 69.3 °F 52.7 °F 56% 30.06 in 10.0 mi Calm Calm - N/A   Clear
12:35 PM 68.9 °F 51.1 °F 53% 30.07 in 10.0 mi Calm Calm - N/A   Clear
12:36 PM 68.9 °F 50.9 °F 53% 30.07 in 10.0 mi Calm Calm - N/A   Clear
12:55 PM 69.6 °F 50.5 °F 51% 30.06 in 10.0 mi Calm Calm - N/A   Clear
12:56 PM 69.6 °F 51.1 °F 52% 30.06 in 10.0 mi East 4.6 mph - N/A   Clear
1:15 PM 69.8 °F 53.1 °F 55% 30.06 in 10.0 mi NE 4.6 mph - N/A   Clear
1:35 PM 69.6 °F 52.2 °F 54% 30.06 in 10.0 mi NE 5.8 mph - N/A   Clear
1:36 PM 69.6 °F 51.8 °F 53% 30.06 in 10.0 mi NNE 3.5 mph - N/A   Clear
1:55 PM 70.9 °F 49.1 °F 46% 30.06 in 10.0 mi NE 8.1 mph - N/A   Clear
2:15 PM 70.7 °F 49.8 °F 48% 30.06 in 10.0 mi Calm Calm - N/A   Clear
2:35 PM 70.9 °F 50.4 °F 48% 30.06 in 10.0 mi NNE 5.8 mph - N/A   Clear
2:55 PM 71.6 °F 48.4 °F 44% 30.05 in 10.0 mi Calm Calm - N/A   Clear
3:15 PM 72.3 °F 50.2 °F 46% 30.06 in 10.0 mi NNE 3.5 mph - N/A   Scattered Clouds
3:35 PM 72.9 °F 48.7 °F 42% 30.06 in 10.0 mi East 4.6 mph - N/A   Scattered Clouds
3:36 PM 72.9 °F 48.7 °F 42% 30.06 in 10.0 mi East 3.5 mph - N/A   Scattered Clouds
3:55 PM 72.7 °F 50.2 °F 45% 30.06 in 10.0 mi East 3.5 mph - N/A   Mostly Cloudy
3:56 PM 72.9 °F 50.5 °F 45% 30.06 in 10.0 mi East 3.5 mph - N/A   Mostly Cloudy
4:15 PM 72.7 °F 48.0 °F 42% 30.05 in 10.0 mi North 3.5 mph - N/A   Scattered Clouds
4:16 PM 72.5 °F 47.5 °F 41% 30.05 in 10.0 mi North 4.6 mph - N/A   Scattered Clouds
4:35 PM 73.8 °F 46.2 °F 37% 30.05 in 10.0 mi WSW 3.5 mph - N/A   Scattered Clouds
4:55 PM 72.9 °F 47.8 °F 41% 30.05 in 10.0 mi Calm Calm - N/A   Scattered Clouds
4:56 PM 72.9 °F 47.7 °F 41% 30.05 in 10.0 mi Calm Calm - N/A   Scattered Clouds
5:15 PM 72.9 °F 48.4 °F 42% 30.05 in 10.0 mi Calm Calm - N/A   Scattered Clouds
5:16 PM 72.9 °F 48.2 °F 42% 30.05 in 10.0 mi Calm Calm - N/A   Scattered Clouds
5:35 PM 73.8 °F 47.1 °F 39% 30.04 in 5.0 mi Calm Calm - N/A   Haze
5:36 PM 73.9 °F 47.3 °F 39% 30.04 in 5.0 mi Calm Calm - N/A   Haze
5:55 PM 73.4 °F 50.2 °F 44% 30.04 in 10.0 mi ENE 4.6 mph - N/A   Scattered Clouds
5:56 PM 73.6 °F 49.5 °F 43% 30.04 in 10.0 mi NE 3.5 mph - N/A   Scattered Clouds
6:15 PM 73.8 °F 46.4 °F 38% 30.04 in 10.0 mi North 3.5 mph - N/A   Clear
6:35 PM 74.5 °F 45.0 °F 35% 30.04 in 7.0 mi Calm Calm - N/A   Scattered Clouds
6:55 PM 74.3 °F 46.6 °F 37% 30.03 in 10.0 mi Calm Calm - N/A   Scattered Clouds
7:15 PM 74.3 °F 43.9 °F 34% 30.03 in 10.0 mi Calm Calm - N/A   Mostly Cloudy
7:35 PM 73.9 °F 46.0 °F 37% 30.03 in 10.0 mi Calm Calm - N/A   Scattered Clouds
7:55 PM 72.9 °F 46.4 °F 39% 30.03 in 10.0 mi Calm Calm - N/A   Clear
7:56 PM 72.9 °F 46.2 °F 39% 30.03 in 10.0 mi Calm Calm - N/A   Clear
8:15 PM 72.5 °F 48.6 °F 43% 30.03 in 10.0 mi Calm Calm - N/A   Clear
8:35 PM 67.5 °F 52.9 °F 59% 30.03 in 10.0 mi Calm Calm - N/A   Clear
8:55 PM 65.1 °F 53.6 °F 66% 30.03 in 10.0 mi Calm Calm - N/A   Clear
9:15 PM 63.5 °F 55.4 °F 75% 30.03 in 10.0 mi Calm Calm - N/A   Clear
9:35 PM 61.5 °F 55.2 °F 80% 30.03 in 10.0 mi Calm Calm - N/A   Clear
9:55 PM 60.3 °F 53.8 °F 79% 30.04 in 10.0 mi Calm Calm - N/A   Scattered Clouds
10:15 PM 62.1 °F 54.5 °F 76% 30.04 in 10.0 mi ESE 3.5 mph - N/A   Clear
10:35 PM 63.1 °F 52.7 °F 69% 30.05 in 10.0 mi ESE 5.8 mph - N/A   Clear
10:55 PM 61.7 °F 52.5 °F 72% 30.06 in 10.0 mi East 4.6 mph - N/A   Clear
10:56 PM 61.3 °F 52.5 °F 73% 30.06 in 10.0 mi East 3.5 mph - N/A   Clear
11:15 PM 59.5 °F 53.1 °F 79% 30.07 in 10.0 mi ENE 4.6 mph - N/A   Scattered Clouds
11:16 PM 59.5 °F 53.1 °F 79% 30.07 in 10.0 mi ENE 4.6 mph - N/A   Scattered Clouds
11:35 PM 58.6 °F 53.2 °F 82% 30.08 in 10.0 mi ENE 3.5 mph - N/A   Scattered Clouds
11:36 PM 58.5 °F 53.2 °F 83% 30.08 in 10.0 mi ENE 3.5 mph - N/A   Scattered Clouds
11:55 PM 57.9 °F 53.6 °F 86% 30.08 in 10.0 mi ENE 4.6 mph - N/A   Clear
11:56 PM 58.1 °F 53.8 °F 86% 30.08 in 10.0 mi East 4.6 mph - N/A   Clear